Flag for United Kingdom Weather past 2 weeks in Milton Keynes, England, United Kingdom

Now
46 °F

Scattered clouds.


Feels Like: 40 °F
Forecast: N/A
Wind: 14 mph from Northwest

Location: Cranfield

Current Time: Jan 26, 2015 at 3:06:25 PM

Latest Report: Jan 26, 2015 at 2:20 PM


Visibility: N/A

Pressure: 30.21 "Hg

Humidity: 71%

Dew point: 37 °F

Location of Milton KeynesLocation

Historic Weather in Milton Keynes — Graph

°F

Milton Keynes temperature yesterday

Maximum temperature yesterday: 46 °F (at 1:20 PM)
Minimum temperature yesterday: 36 °F (at 8:50 AM)
Average temperature yesterday: 42 °F

Past Weeks' High & Low Weather Summary

 TemperatureHumidityPressure
High52 °F (Jan 12, 2:20 PM)100% (Jan 12, 1:20 PM)30.42 "Hg (Jan 12, 1:20 PM)
Low25 °F (Jan 23, 8:50 AM)66% (Jan 26, 12:20 PM)29.12 "Hg (Jan 15, 7:20 AM)
Average39 °F85%29.87 "Hg
* Reported Jan 11 1:20 PM — Jan 26 1:50 PM, Milton Keynes, Weather by CustomWeather, © 2014

Note: Actual official high and low records may vary slightly from our data, if they occured in-between our weather recording intervals... More about our weather records

Advertising

Milton Keynes weather history for previous 24 hours

 ConditionsComfort  
Time TempWeatherWind HumidityBarometerVisibility
1:50 PM
Jan 26
46 °FScattered clouds.9 mph71%30.21 "HgN/A
1:20 PM46 °FScattered clouds.13 mph71%30.18 "HgN/A
12:50 PM46 °FScattered clouds.14 mph66%30.21 "HgN/A
12:20 PM46 °FPassing clouds.18 mph66%30.18 "HgN/A
11:50 AM46 °FScattered clouds.13 mph76%30.18 "HgN/A
11:20 AM46 °FScattered clouds.13 mph76%30.18 "HgN/A
10:50 AM46 °FScattered clouds.12 mph82%30.18 "HgN/A
10:20 AM48 °FScattered clouds.16 mph76%30.18 "HgN/A
9:50 AM48 °FScattered clouds.15 mph82%30.15 "HgN/A
9:20 AM48 °FPartly sunny.9 mph87%30.15 "HgN/A
8:50 AM46 °FDrizzle. Partly sunny.12 mph100%30.15 "Hg4 mi
8:20 AM48 °FDrizzle. Partly sunny.9 mph94%30.12 "Hg5 mi
7:50 AM48 °FPartly sunny.8 mph94%30.12 "HgN/A
7:20 AM48 °FPassing clouds.13 mph94%30.12 "HgN/A
5:20 PM
Jan 25
43 °FPassing clouds.12 mph93%30.30 "HgN/A
4:50 PM45 °FPassing clouds.9 mph87%30.30 "HgN/A
4:20 PM45 °FScattered clouds.12 mph87%30.30 "HgN/A
3:50 PM45 °FPassing clouds.13 mph87%30.30 "HgN/A
3:20 PM45 °FPassing clouds.10 mph87%30.30 "HgN/A
Weather by CustomWeather, © 2014

See weather overviewHow to use our weather pages